RADUGA-1M 1 (32373 NORAD) Tracking and Keplerian Element Data

This shows tracking and keplerian element data for the satellite.

Feedback or suggestion? Click here.




ElementValue
Catalog32373
NameRADUGA-1M 1
Epoch Orbit4743
Epoch Day34.120432
Epoch Year2025
RAAN56.429
Inclination9.0555
Eccentricity0.0002231
Argument of Perigee256.2383
Mean Anonmoly266.1975
Mean Motion0.9939517
Decay Rate9E-07
L11 32373U 07058A 25034.12043200 .00000090 00000+0 00000+0 0 9991
L22 32373 9.0555 56.4290 0002231 256.2383 266.1975 0.99395170 47434



Live tracking and technical data element details for RADUGA-1M 1 (NORAD 32373). RADUGA-1M 1 can be tracked NOW for your location showing map with azimuth and elevation plus other details from your city location.







IsCatalogInMostPopularTable: catalog: 32373, numindb: 407
Update: records affected: 1



GetName: 32373 RADUGA-1M 1

Hit Count: updated at: Thu, 15 May 2025 10:16:14 GMT